Weather History for Wautoma, WI

Change the Weather History Date:

Monday, December 31, 2012

  Actual Average (KPCZ) Record (KPCZ)
Temperature  
Mean Temperature 12 °F -  
Max Temperature 22 °F 27 °F 49 °F (1979)
Min Temperature -1 °F 7 °F -19 °F (1967)
Degree Days  
Heating Degree Days 54    
Moisture  
Dew Point 9 °F    
Average Humidity 81    
Maximum Humidity 96    
Minimum Humidity 65    
Precipitation  
Precipitation 0.00 in - - ()
Sea Level Pressure  
Sea Level Pressure 30.07 in    
Wind  
Wind Speed 7 mph (NW)    
Max Wind Speed 18 mph    
Max Gust Speed 21 mph    
Visibility 9 miles    
Events Snow    
Averages and records for this station are not official NWS values.
T = Trace of Precipitation, MM = Missing Value Source: NWS Daily Summary

Daily Weather History Graph

Daily Weather History Graph

Search for Another Location

Airport:

Trip Planner

Search our weather history database for the weather conditions in past years. The results will help you decide how hot, cold, wet, or windy it might be!

Date:

Astronomy

Dec. 31, 2012 Rise Set
Actual Time 7:32 AM CST 4:29 PM CST
Civil Twilight 6:59 AM CST 5:02 PM CST
Nautical Twilight 6:22 AM CST 5:38 PM CST
Astronomical Twilight 5:47 AM CST 6:13 PM CST
Moon 8:07 PM CST (12/31) 9:06 AM CST (12/31)
Length of Visible Light 10h 02m
Length of Day
8h 57m
Waning Gibbous, 90% of the Moon is Illuminated
Dec 31
Waning Gibbous
Jan 4
Last Quarter
Jan 11
New
Jan 18
First Quarter
Jan 26
Full

Hourly Weather History & Observations

Time (CST) Temp. Windchill Dew Point Humidity Pressure Visibility Wind Dir Wind Speed Gust Speed Precip Events Conditions
12:56 AM 5.0 °F - 3.0 °F 92% 29.95 in 6.0 mi Calm Calm - N/A   Mostly Cloudy
1:56 AM 7.2 °F - 5.0 °F 91% 29.95 in 7.0 mi Calm Calm - N/A   Partly Cloudy
2:56 AM 6.1 °F - 4.1 °F 92% 29.95 in 6.0 mi Calm Calm - N/A   Clear
3:56 AM 22.1 °F 10.6 °F 21.0 °F 96% 29.96 in 10.0 mi West 11.5 mph - N/A   Clear
4:56 AM 21.0 °F 9.9 °F 18.1 °F 89% 29.97 in 10.0 mi West 10.4 mph - N/A   Partly Cloudy
5:24 AM 21.2 °F 8.3 °F 17.6 °F 86% 29.94 in 10.0 mi WNW 13.8 mph - N/A   Mostly Cloudy
5:56 AM 20.1 °F 6.9 °F 17.1 °F 88% 29.99 in 9.0 mi WNW 13.8 mph - N/A   Mostly Cloudy
6:56 AM 19.0 °F 3.6 °F 16.2 °F 89% 30.02 in 8.0 mi WNW 18.4 mph - N/A   Overcast
7:56 AM 18.1 °F 5.0 °F 16.2 °F 92% 30.04 in 7.0 mi NW 12.7 mph - N/A   Overcast
8:56 AM 17.6 °F 5.7 °F 15.8 °F 93% 30.02 in 6.0 mi WNW 10.4 mph 19.6 mph N/A   Overcast
9:56 AM 18.1 °F 4.4 °F 13.1 °F 81% 30.09 in 8.0 mi NW 13.8 mph 19.6 mph 0.00 in Snow Light Snow
10:07 AM 17.6 °F 3.2 °F 12.2 °F 79% 30.05 in 10.0 mi NW 15.0 mph 20.7 mph 0.00 in   Overcast
10:56 AM 18.1 °F 5.0 °F 11.1 °F 74% 30.10 in 10.0 mi NNW 12.7 mph - 0.00 in   Overcast
11:56 AM 18.1 °F 6.3 °F 11.1 °F 74% 30.09 in 10.0 mi NNW 10.4 mph - 0.00 in   Overcast
12:56 PM 18.1 °F 3.4 °F 10.0 °F 71% 30.07 in 10.0 mi WNW 16.1 mph 20.7 mph 0.00 in   Mostly Cloudy
1:09 PM 17.6 °F 3.2 °F 10.4 °F 73% 30.03 in 10.0 mi NW 15.0 mph 20.7 mph N/A   Scattered Clouds
1:56 PM 18.1 °F 5.6 °F 9.1 °F 68% 30.08 in 10.0 mi NW 11.5 mph - N/A   Clear
2:56 PM 18.1 °F 6.3 °F 9.1 °F 68% 30.09 in 10.0 mi NNW 10.4 mph - N/A   Clear
3:56 PM 16.2 °F 7.6 °F 6.1 °F 65% 30.11 in 10.0 mi NNW 5.8 mph - N/A   Clear
4:56 PM 13.1 °F 7.1 °F 4.1 °F 67% 30.13 in 10.0 mi NNW 3.5 mph - N/A   Clear
5:56 PM 7.2 °F - 2.1 °F 80% 30.15 in 10.0 mi Calm Calm - N/A   Clear
6:56 PM 8.1 °F - 3.0 °F 80% 30.16 in 10.0 mi Calm Calm - N/A   Clear
7:56 PM 7.2 °F -1.5 °F 2.1 °F 80% 30.17 in 10.0 mi NW 4.6 mph - N/A   Clear
8:56 PM 7.2 °F - 2.1 °F 80% 30.18 in 10.0 mi Calm Calm - N/A   Clear
9:56 PM 6.1 °F - 1.0 °F 80% 30.20 in 10.0 mi Calm Calm - N/A   Clear
10:56 PM 1.0 °F - -2.9 °F 83% 30.22 in 10.0 mi Calm Calm - N/A   Clear
11:56 PM -1.8 °F - -4.9 °F 87% 30.23 in 10.0 mi Calm Calm - N/A   Clear